P/2003 U2 ( LINEAR )

Japanese version
Home page
Updated on March 10, 2004

---------------------------------------------------------------------

* Profile

Discovery Date October 19, 2003
Magnitude 18.3 mag
Discoverer Lincoln Laboratory Near-Earth Asteroid Research project

* Orbital Elements

T 2003 Dec. 4.8815 TT                                   MPC
q   1.710452             (2000.0)            P               Q
n   0.1026695      Peri.  177.3228      +0.9973508      -0.0558325
a   4.516912       Node   186.4581      +0.0566291      +0.9982680
e   0.621323       Incl.   24.4910      +0.0456561      -0.0185392
P   9.60
>From 108 observations 2003 Sept. 19-Dec. 15.

* Finding Charts

* Magnitudes Graph

        m1 = 14.5 + 5 log d + 10.0 log r

---------------------------------------------------------------------

The orbital elements are published on M.P.E.C. 2003-Y08.
The charts are made with StellaNavigator Ver.2.0 for Windows (AstroArts / ASCII).
The magnitudes graphs are made with Comet for Windows.

---------------------------------------------------------------------

Copyright(C) Seiichi Yoshida (comet@aerith.net). All rights reserved.